Location: Turtle Rock Observatory
(36.6913°N, 81.9708°W)
Time: 13:20:33
(UTC-04:00)

Lacrosse 5 rocket - Visible Passes

Search period start: 24 June 2017 00:00
Search period end: 04 July 2017 00:00
Orbit: 467 x 636 km, 57.0° (Epoch: 03 June)

Date Brightness Start Highest point End Pass type
(mag) Time Alt. Az. Time Alt. Az. Time Alt. Az.
28 Jun 3.9 05:31:23 10° SE 05:32:23 11° ESE 05:33:24 10° ESE visible
29 Jun 3.6 05:25:10 10° SSE 05:27:31 16° ESE 05:29:55 10° E visible
30 Jun 3.1 05:19:40 10° S 05:22:39 23° ESE 05:25:45 10° ENE visible
01 Jul 2.4 05:14:29 10° S 05:17:50 33° SE 05:21:21 10° ENE visible
02 Jul 1.7 05:09:58 13° SSW 05:13:03 49° SE 05:16:49 10° NE visible
03 Jul 1.2 05:05:37 18° SSW 05:08:17 75° SE 05:12:10 10° NE visible
